Location: Aufkirchen
(47.9603°N, 11.3653°E)
Time: 12:39:38
(UTC+01:00)

Transit 2A Rocket - Pass Details

Date: 11 December 2020
Orbit: 592 x 910 km, 66.7° (Epoch: 21 January)

Event Time Altitude Azimuth Distance (km) Brightness Sun altitude
Rises 02:51:29 0° 295° (WNW) 3,354 - -49.1°
Reaches altitude 10° 02:56:24 10° 333° (NNW) 2,326 - -48.4°
Maximum altitude 02:57:34 11° 346° (NNW) 2,258 - -48.2°
Drops below altitude 10° 02:58:42 10° 358° (N) 2,279 - -48.0°
Exits shadow 03:02:52 - 35° (NE) 2,992 8.6 -47.4°
Sets 03:03:17 0° 37° (NE) 3,103 8.7 -47.3°
